| time (UTC) | temp F | wind direction | speed MPH | gust MPH | rain 1hr in | rain 24hr in | rain mn in | humidity % | barometer mb |
| 20260507150516 | 60 | 315 | 4.0 | 10.0 | 0.00 | 0.00 | 0.00 | 43 | 1011.7 |
| 20260507145536 | 60 | 293 | 3.0 | 8.0 | 0.00 | 0.00 | 0.00 | 47 | 1012.0 |
| 20260507144516 | 60 | 45 | 3.0 | 7.0 | 0.00 | 0.00 | 0.00 | 48 | 1012.3 |
| 20260507143516 | 59 | 293 | 5.0 | 11.0 | 0.00 | 0.00 | 0.00 | 45 | 1012.2 |
| 20260507142516 | 59 | 315 | 3.0 | 12.0 | 0.00 | 0.01 | 0.00 | 49 | 1012.4 |
| 20260507141516 | 57 | 315 | 2.0 | 8.0 | 0.00 | 0.01 | 0.00 | 51 | 1012.5 |
| 20260507140516 | 57 | 315 | 3.0 | 6.0 | 0.00 | 0.01 | 0.00 | 51 | 1012.5 |
| 20260507135537 | 56 | 315 | 3.0 | 8.0 | 0.00 | 0.02 | 0.00 | 52 | 1012.7 |
| 20260507134516 | 56 | 315 | 2.0 | 7.0 | 0.00 | 0.02 | 0.00 | 55 | 1012.9 |
| 20260507133517 | 56 | 315 | 3.0 | 8.0 | 0.00 | 0.03 | 0.00 | 54 | 1012.9 |
| 20260507132516 | 55 | 315 | 3.0 | 7.0 | 0.00 | 0.03 | 0.00 | 55 | 1013.0 |
| 20260507131516 | 55 | 315 | 2.0 | 5.0 | 0.00 | 0.04 | 0.00 | 58 | 1013.0 |
| 20260507130516 | 55 | 315 | 1.0 | 4.0 | 0.00 | 0.07 | 0.00 | 60 | 1013.1 |
| 20260507125516 | 54 | 315 | 1.0 | 3.0 | 0.00 | 0.08 | 0.00 | 59 | 1013.0 |
| 20260507124536 | 54 | 293 | 3.0 | 5.0 | 0.00 | 0.10 | 0.00 | 57 | 1013.1 |
| 20260507123517 | 54 | 315 | 3.0 | 6.0 | 0.00 | 0.11 | 0.00 | 57 | 1012.9 |
| 20260507122516 | 54 | 315 | 2.0 | 5.0 | 0.00 | 0.12 | 0.00 | 58 | 1012.8 |
| 20260507121516 | 54 | 0.0 | 2.0 | 0.00 | 0.12 | 0.00 | 60 | 1012.9 | |
| 20260507120516 | 54 | 293 | 1.0 | 4.0 | 0.00 | 0.13 | 0.00 | 58 | 1012.7 |
| 20260507115515 | 54 | 315 | 1.0 | 3.0 | 0.00 | 0.14 | 0.00 | 58 | 1012.7 |
| 20260507114536 | 53 | 0.0 | 3.0 | 0.00 | 0.15 | 0.00 | 58 | 1012.7 | |
| 20260507113516 | 53 | 0.0 | 2.0 | 0.00 | 0.16 | 0.00 | 58 | 1012.6 | |
| 20260507112516 | 53 | 315 | 2.0 | 7.0 | 0.00 | 0.17 | 0.00 | 56 | 1012.6 |
| 20260507111515 | 53 | 315 | 3.0 | 7.0 | 0.00 | 0.18 | 0.00 | 54 | 1012.7 |
| 20260507110516 | 53 | 315 | 2.0 | 4.0 | 0.00 | 0.18 | 0.00 | 56 | 1012.5 |
| 20260507105516 | 53 | 293 | 3.0 | 7.0 | 0.00 | 0.19 | 0.00 | 55 | 1012.5 |
| 20260507104517 | 54 | 315 | 2.0 | 5.0 | 0.00 | 0.19 | 0.00 | 56 | 1012.4 |
| 20260507103516 | 54 | 0.0 | 2.0 | 0.00 | 0.19 | 0.00 | 57 | 1012.0 | |
| 20260507102516 | 54 | 0 | 1.0 | 4.0 | 0.00 | 0.19 | 0.00 | 56 | 1012.0 |
| 20260507101516 | 54 | 293 | 1.0 | 4.0 | 0.00 | 0.19 | 0.00 | 56 | 1011.9 |
| 20260507100516 | 54 | 315 | 3.0 | 9.0 | 0.00 | 0.19 | 0.00 | 56 | 1011.9 |
| 20260507095516 | 54 | 315 | 4.0 | 11.0 | 0.00 | 0.19 | 0.00 | 55 | 1011.7 |
| 20260507094516 | 54 | 315 | 3.0 | 10.0 | 0.00 | 0.19 | 0.00 | 57 | 1011.4 |
| 20260507093536 | 54 | 315 | 3.0 | 5.0 | 0.00 | 0.19 | 0.00 | 58 | 1011.4 |
| 20260507092536 | 55 | 315 | 4.0 | 12.0 | 0.00 | 0.19 | 0.00 | 58 | 1011.3 |
| 20260507091536 | 55 | 315 | 5.0 | 14.0 | 0.00 | 0.19 | 0.00 | 61 | 1011.5 |
| 20260507090536 | 55 | 315 | 2.0 | 4.0 | 0.00 | 0.19 | 0.00 | 66 | 1011.6 |
| 20260507085516 | 55 | 315 | 2.0 | 7.0 | 0.00 | 0.19 | 0.00 | 67 | 1011.5 |
| 20260507084518 | 55 | 338 | 2.0 | 5.0 | 0.00 | 0.19 | 0.00 | 67 | 1011.5 |
| 20260507083517 | 55 | 315 | 3.0 | 7.0 | 0.00 | 0.19 | 0.00 | 69 | 1011.3 |
| 20260507082518 | 56 | 315 | 2.0 | 6.0 | 0.00 | 0.19 | 0.00 | 70 | 1011.5 |
| 20260507081517 | 56 | 315 | 2.0 | 9.0 | 0.00 | 0.19 | 0.00 | 71 | 1011.3 |
| 20260507080517 | 56 | 315 | 2.0 | 7.0 | 0.00 | 0.19 | 0.00 | 73 | 1011.1 |
| 20260507075538 | 56 | 293 | 3.0 | 5.0 | 0.00 | 0.19 | 0.00 | 73 | 1010.9 |
| 20260507074517 | 56 | 315 | 3.0 | 7.0 | 0.00 | 0.19 | 0.00 | 74 | 1010.9 |
| 20260507073538 | 56 | 315 | 2.0 | 7.0 | 0.00 | 0.19 | 0.00 | 74 | 1010.8 |
| 20260507072517 | 56 | 315 | 2.0 | 8.0 | 0.00 | 0.19 | 0.00 | 75 | 1010.9 |
| 20260507071517 | 56 | 338 | 2.0 | 6.0 | 0.00 | 0.19 | 0.00 | 75 | 1010.8 |
| 20260507070518 | 56 | 315 | 2.0 | 5.0 | 0.00 | 0.19 | 0.00 | 74 | 1010.8 |
| 20260507065517 | 56 | 315 | 3.0 | 6.0 | 0.00 | 0.19 | 0.00 | 73 | 1010.8 |
| 20260507064518 | 56 | 315 | 4.0 | 10.0 | 0.00 | 0.19 | 0.00 | 74 | 1011.0 |
| 20260507063518 | 56 | 315 | 3.0 | 6.0 | 0.00 | 0.19 | 0.00 | 74 | 1011.1 |
| 20260507062517 | 57 | 315 | 3.0 | 5.0 | 0.00 | 0.19 | 0.00 | 73 | 1011.1 |
| 20260507061520 | 57 | 315 | 3.0 | 7.0 | 0.00 | 0.19 | 0.00 | 73 | 1011.3 |
| 20260507060517 | 57 | 315 | 2.0 | 5.0 | 0.00 | 0.19 | 0.00 | 73 | 1011.3 |
| 20260507055537 | 57 | 315 | 3.0 | 10.0 | 0.00 | 0.19 | 0.00 | 72 | 1011.2 |
| 20260507054537 | 57 | 293 | 2.0 | 6.0 | 0.00 | 0.19 | 0.00 | 73 | 1011.1 |
| 20260507053518 | 57 | 315 | 3.0 | 5.0 | 0.00 | 0.19 | 0.00 | 73 | 1011.0 |
| 20260507052517 | 57 | 315 | 1.0 | 2.0 | 0.00 | 0.19 | 0.00 | 74 | 1011.0 |
| 20260507051518 | 57 | 315 | 3.0 | 6.0 | 0.00 | 0.19 | 0.00 | 74 | 1011.0 |
| 20260507050517 | 57 | 315 | 2.0 | 6.0 | 0.00 | 0.19 | 0.00 | 75 | 1011.0 |
| 20260507045520 | 57 | 0 | 3.0 | 8.0 | 0.00 | 0.19 | 0.00 | 76 | 1011.0 |
| 20260507044517 | 57 | 293 | 2.0 | 6.0 | 0.00 | 0.19 | 0.00 | 78 | 1011.0 |
| 20260507043518 | 58 | 23 | 2.0 | 4.0 | 0.00 | 0.19 | 0.00 | 78 | 1010.2 |
| 20260507042517 | 58 | 315 | 2.0 | 4.0 | 0.00 | 0.19 | 0.00 | 78 | 1011.0 |
| 20260507041521 | 58 | 315 | 4.0 | 9.0 | 0.00 | 0.19 | 0.00 | 78 | 1011.0 |
| 20260507040537 | 58 | 315 | 3.0 | 8.0 | 0.00 | 0.19 | 0.00 | 79 | 1010.9 |
| 20260507035517 | 59 | 293 | 2.0 | 8.0 | 0.00 | 0.19 | 0.00 | 79 | 1010.4 |
| 20260507034518 | 59 | 315 | 4.0 | 8.0 | 0.00 | 0.19 | 0.00 | 78 | 1010.6 |
| 20260507033517 | 59 | 315 | 5.0 | 11.0 | 0.00 | 0.19 | 0.00 | 78 | 1010.5 |
| 20260507032517 | 59 | 315 | 5.0 | 11.0 | 0.00 | 0.19 | 0.00 | 77 | 1010.6 |
| 20260507031517 | 60 | 315 | 3.0 | 8.0 | 0.00 | 0.19 | 0.00 | 77 | 1010.7 |
| 20260507030537 | 60 | 315 | 3.0 | 5.0 | 0.00 | 0.19 | 0.00 | 78 | 1010.5 |
| 20260507025517 | 60 | 315 | 4.0 | 11.0 | 0.00 | 0.19 | 0.00 | 77 | 1010.3 |
| 20260507024537 | 60 | 315 | 2.0 | 4.0 | 0.00 | 0.19 | 0.00 | 77 | 1010.2 |
| 20260507023537 | 60 | 315 | 2.0 | 5.0 | 0.00 | 0.19 | 0.00 | 77 | 1010.3 |
| 20260507022517 | 61 | 45 | 3.0 | 8.0 | 0.00 | 0.19 | 0.00 | 76 | 1010.2 |
| 20260507021517 | 61 | 293 | 2.0 | 8.0 | 0.00 | 0.19 | 0.00 | 77 | 1010.0 |
| 20260507020517 | 61 | 45 | 1.0 | 3.0 | 0.00 | 0.19 | 0.00 | 78 | 1010.0 |
| 20260507015517 | 61 | 338 | 2.0 | 6.0 | 0.00 | 0.19 | 0.00 | 77 | 1009.9 |
| 20260507014557 | 61 | 23 | 2.0 | 8.0 | 0.00 | 0.19 | 0.00 | 79 | 1010.0 |
| 20260507013517 | 61 | 293 | 3.0 | 7.0 | 0.00 | 0.19 | 0.00 | 80 | 1009.8 |
| 20260507012517 | 61 | 23 | 2.0 | 5.0 | 0.00 | 0.19 | 0.00 | 81 | 1009.6 |
| 20260507011517 | 62 | 338 | 2.0 | 4.0 | 0.00 | 0.19 | 0.00 | 80 | 1009.6 |
| 20260507010557 | 62 | 315 | 1.0 | 4.0 | 0.00 | 0.19 | 0.00 | 80 | 1009.7 |
| 20260507005518 | 63 | 293 | 2.0 | 5.0 | 0.00 | 0.19 | 0.00 | 81 | 1010.2 |
| 20260507004517 | 64 | 315 | 2.0 | 5.0 | 0.00 | 0.19 | 0.00 | 81 | 1009.8 |
| 20260507003517 | 64 | 315 | 3.0 | 6.0 | 0.00 | 0.19 | 0.00 | 80 | 1009.8 |
| 20260507002516 | 64 | 315 | 3.0 | 10.0 | 0.00 | 0.19 | 0.00 | 80 | 1009.7 |
| 20260507001517 | 65 | 315 | 5.0 | 12.0 | 0.00 | 0.19 | 0.00 | 81 | 1009.8 |
| 20260507000517 | 65 | 315 | 4.0 | 10.0 | 0.00 | 0.19 | 0.00 | 81 | 1009.2 |
| 20260506235517 | 66 | 315 | 5.0 | 12.0 | 0.00 | 0.19 | 0.00 | 81 | 1009.3 |
| 20260506234517 | 66 | 315 | 5.0 | 9.0 | 0.00 | 0.19 | 0.00 | 81 | 1008.8 |
| 20260506233517 | 67 | 315 | 5.0 | 12.0 | 0.00 | 0.19 | 0.00 | 81 | 1009.0 |
| 20260506232517 | 67 | 315 | 2.0 | 6.0 | 0.00 | 0.19 | 0.00 | 82 | 1008.2 |
| 20260506231517 | 67 | 315 | 3.0 | 5.0 | 0.00 | 0.19 | 0.00 | 81 | 1008.2 |
| 20260506230517 | 68 | 315 | 3.0 | 10.0 | 0.00 | 0.19 | 0.00 | 81 | 1008.3 |
| 20260506225537 | 68 | 315 | 3.0 | 8.0 | 0.00 | 0.19 | 0.19 | 82 | 1008.1 |
| 20260506224538 | 69 | 315 | 2.0 | 7.0 | 0.00 | 0.19 | 0.19 | 84 | 1008.2 |
| 20260506223518 | 69 | 0.0 | 2.0 | 0.00 | 0.19 | 0.19 | 84 | 1008.0 | |
| 20260506222518 | 69 | 0.0 | 2.0 | 0.00 | 0.19 | 0.19 | 84 | 1007.8 | |
| 20260506221538 | 69 | 225 | 1.0 | 3.0 | 0.00 | 0.19 | 0.19 | 86 | 1007.9 |
| 20260506220517 | 69 | 0.0 | 2.0 | 0.00 | 0.19 | 0.19 | 86 | 1007.7 | |
| 20260506215537 | 68 | 225 | 1.0 | 3.0 | 0.00 | 0.19 | 0.19 | 87 | 1007.6 |
| 20260506214517 | 68 | 0.0 | 1.0 | 0.00 | 0.19 | 0.19 | 87 | 1007.7 | |
| 20260506213517 | 68 | 0.0 | 0.0 | 0.00 | 0.19 | 0.19 | 87 | 1007.8 | |
| 20260506212518 | 68 | 0.0 | 1.0 | 0.00 | 0.19 | 0.19 | 87 | 1007.7 | |
| 20260506211517 | 68 | 0.0 | 1.0 | 0.00 | 0.19 | 0.19 | 87 | 1007.6 | |
| 20260506210518 | 68 | 0.0 | 1.0 | 0.00 | 0.19 | 0.19 | 87 | 1007.4 | |
| 20260506205517 | 68 | 0.0 | 1.0 | 0.00 | 0.19 | 0.19 | 86 | 1007.3 | |
| 20260506204517 | 68 | 0.0 | 0.0 | 0.00 | 0.19 | 0.19 | 85 | 1007.3 | |
| 20260506203517 | 68 | 0.0 | 0.0 | 0.00 | 0.19 | 0.19 | 85 | 1007.3 | |
| 20260506202517 | 68 | 0.0 | 2.0 | 0.00 | 0.19 | 0.19 | 84 | 1007.1 | |
| 20260506201517 | 68 | 0.0 | 1.0 | 0.00 | 0.19 | 0.19 | 84 | 1007.4 | |
| 20260506200517 | 68 | 0.0 | 2.0 | 0.00 | 0.19 | 0.19 | 82 | 1007.3 | |
| 20260506195517 | 69 | 203 | 1.0 | 2.0 | 0.00 | 0.19 | 0.19 | 81 | 1007.3 |
| 20260506194537 | 69 | 180 | 1.0 | 4.0 | 0.00 | 0.19 | 0.19 | 81 | 1007.2 |
| 20260506193517 | 69 | 180 | 1.0 | 3.0 | 0.00 | 0.19 | 0.19 | 80 | 1007.2 |
| 20260506192517 | 69 | 135 | 2.0 | 6.0 | 0.00 | 0.19 | 0.19 | 80 | 1007.4 |
| 20260506191517 | 70 | 180 | 3.0 | 10.0 | 0.00 | 0.19 | 0.19 | 79 | 1007.5 |
| 20260506190518 | 70 | 158 | 1.0 | 5.0 | 0.00 | 0.19 | 0.19 | 81 | 1007.4 |
| 20260506185517 | 69 | 180 | 2.0 | 5.0 | 0.00 | 0.19 | 0.19 | 81 | 1007.4 |
| 20260506184517 | 68 | 158 | 1.0 | 6.0 | 0.00 | 0.19 | 0.19 | 82 | 1007.3 |
| 20260506183518 | 68 | 135 | 2.0 | 8.0 | 0.00 | 0.19 | 0.19 | 84 | 1007.5 |
| 20260506182537 | 67 | 158 | 2.0 | 11.0 | 0.00 | 0.19 | 0.19 | 84 | 1007.6 |
| 20260506181517 | 67 | 180 | 2.0 | 7.0 | 0.00 | 0.19 | 0.19 | 85 | 1007.6 |
| 20260506180517 | 66 | 135 | 1.0 | 5.0 | 0.00 | 0.19 | 0.19 | 84 | 1007.7 |
| 20260506175538 | 66 | 180 | 3.0 | 6.0 | 0.00 | 0.19 | 0.19 | 84 | 1007.7 |
| 20260506174517 | 66 | 158 | 3.0 | 10.0 | 0.00 | 0.19 | 0.19 | 84 | 1007.7 |
| 20260506173517 | 66 | 180 | 3.0 | 8.0 | 0.00 | 0.19 | 0.19 | 84 | 1007.7 |
| 20260506172517 | 66 | 158 | 4.0 | 9.0 | 0.00 | 0.19 | 0.19 | 83 | 1007.8 |
| 20260506171516 | 67 | 135 | 3.0 | 9.0 | 0.00 | 0.19 | 0.19 | 83 | 1007.7 |
| 20260506170516 | 67 | 180 | 3.0 | 9.0 | 0.00 | 0.19 | 0.19 | 83 | 1007.7 |
| 20260506165517 | 67 | 180 | 3.0 | 8.0 | 0.00 | 0.19 | 0.19 | 85 | 1007.9 |
| 20260506164537 | 66 | 180 | 3.0 | 9.0 | 0.00 | 0.19 | 0.19 | 87 | 1007.8 |
| 20260506163516 | 65 | 225 | 2.0 | 8.0 | 0.00 | 0.19 | 0.19 | 88 | 1007.7 |
| 20260506162557 | 65 | 180 | 3.0 | 7.0 | 0.00 | 0.19 | 0.19 | 90 | 1007.7 |
| 20260506161516 | 64 | 180 | 3.0 | 9.0 | 0.00 | 0.19 | 0.19 | 92 | 1007.8 |
| 20260506160517 | 63 | 203 | 2.0 | 8.0 | 0.00 | 0.19 | 0.19 | 93 | 1007.7 |
| 20260506155537 | 63 | 248 | 3.0 | 8.0 | 0.00 | 0.19 | 0.19 | 93 | 1007.7 |
| 20260506154517 | 62 | 158 | 2.0 | 7.0 | 0.00 | 0.19 | 0.19 | 93 | 1008.0 |
| 20260506153517 | 62 | 180 | 3.0 | 8.0 | 0.00 | 0.19 | 0.19 | 93 | 1008.0 |
| 20260506152517 | 62 | 180 | 3.0 | 9.0 | 0.01 | 0.19 | 0.19 | 93 | 1007.8 |
| 20260506151516 | 62 | 203 | 2.0 | 7.0 | 0.01 | 0.19 | 0.19 | 94 | 1007.8 |